Time,TemperatureF,DewpointF,PressureIn,WindDirection,WindDirectionDegrees,WindSpeedMPH,WindSpeedGustMPH,Humidity,HourlyPrecipIn,Conditions,Clouds,dailyrainin,SoftwareType,DateUTC
2013-03-19 00:02:00,36.0,13.0,-100.00,NNE,30,8.0,11.0,38,-99.99,,,-99.99,,2013-03-19 05:02:00,
2013-03-19 00:12:00,36.0,13.0,-100.00,NNE,25,7.0,13.0,38,-99.99,,,-99.99,,2013-03-19 05:12:00,
2013-03-19 00:32:00,35.0,12.0,-100.00,NNE,30,6.0,11.0,39,-99.99,,,-99.99,,2013-03-19 05:32:00,
2013-03-19 00:43:00,35.0,12.0,-100.00,NNE,30,8.0,10.0,39,-99.99,,,-99.99,,2013-03-19 05:43:00,
2013-03-19 01:02:00,34.0,12.0,-100.00,NNE,25,8.0,11.0,40,-99.99,,,-99.99,,2013-03-19 06:02:00,
2013-03-19 01:12:00,33.0,12.0,-100.00,NNE,20,9.0,13.0,40,-99.99,,,-99.99,,2013-03-19 06:12:00,
2013-03-19 01:32:00,33.0,12.0,-100.00,North,10,4.0,9.0,41,-99.99,,,-99.99,,2013-03-19 06:32:00,
2013-03-19 01:42:00,33.0,12.0,-100.00,North,10,4.0,9.0,41,-99.99,,,-99.99,,2013-03-19 06:42:00,
2013-03-19 02:02:00,33.0,12.0,-100.00,NNW,330,2.0,4.0,42,-99.99,,,-99.99,,2013-03-19 07:02:00,
2013-03-19 02:12:00,33.0,12.0,-100.00,North,350,2.0,4.0,42,-99.99,,,-99.99,,2013-03-19 07:12:00,
2013-03-19 02:32:00,33.0,12.0,-100.00,North,0,1.0,2.0,42,-99.99,,,-99.99,,2013-03-19 07:32:00,
2013-03-19 02:42:00,32.0,12.0,-100.00,NNE,20,4.0,5.0,42,-99.99,,,-99.99,,2013-03-19 07:42:00,
2013-03-19 03:03:00,32.0,12.0,-100.00,NNW,340,0.0,4.0,42,-99.99,,,-99.99,,2013-03-19 08:03:00,
2013-03-19 03:12:00,31.0,11.0,-100.00,South,185,1.0,1.0,42,-99.99,,,-99.99,,2013-03-19 08:12:00,
2013-03-19 04:02:00,30.0,11.0,-100.00,SW,225,5.0,5.0,45,-99.99,,,-99.99,,2013-03-19 09:02:00,
2013-03-19 04:12:00,30.0,11.0,-100.00,West,260,2.0,5.0,46,-99.99,,,-99.99,,2013-03-19 09:12:00,
2013-03-19 04:32:00,31.0,13.0,-100.00,West,275,5.0,5.0,46,-99.99,,,-99.99,,2013-03-19 09:32:00,
2013-03-19 04:43:00,32.0,13.0,-100.00,NW,320,4.0,6.0,45,-99.99,,,-99.99,,2013-03-19 09:43:00,
2013-03-19 05:03:00,33.0,13.0,-100.00,NNW,330,2.0,5.0,43,-99.99,,,-99.99,,2013-03-19 10:03:00,
2013-03-19 05:13:00,33.0,13.0,-100.00,NNW,330,2.0,5.0,43,-99.99,,,-99.99,,2013-03-19 10:13:00,
2013-03-19 05:32:00,33.0,13.0,-100.00,North,355,4.0,4.0,43,-99.99,,,-99.99,,2013-03-19 10:32:00,
2013-03-19 05:42:00,33.0,13.0,-100.00,NW,305,2.0,5.0,43,-99.99,,,-99.99,,2013-03-19 10:42:00,
2013-03-19 06:02:00,30.0,12.0,-100.00,West,280,5.0,6.0,46,-99.99,,,-99.99,,2013-03-19 11:02:00,
2013-03-19 06:12:00,30.0,12.0,-100.00,West,280,5.0,6.0,46,-99.99,,,-99.99,,2013-03-19 11:12:00,
2013-03-19 06:33:00,31.0,13.0,-100.00,West,265,4.0,6.0,46,-99.99,,,-99.99,,2013-03-19 11:33:00,
2013-03-19 06:43:00,30.0,13.0,-100.00,SW,220,5.0,6.0,48,-99.99,,,-99.99,,2013-03-19 11:43:00,
2013-03-19 07:33:00,31.0,15.0,-100.00,SW,215,6.0,7.0,52,-99.99,,,-99.99,,2013-03-19 12:33:00,
2013-03-19 07:42:00,30.0,15.0,-100.00,WSW,250,7.0,8.0,54,-99.99,,,-99.99,,2013-03-19 12:42:00,
2013-03-19 08:02:00,29.0,16.0,-100.00,WSW,245,5.0,10.0,58,-99.99,,,-99.99,,2013-03-19 13:02:00,
2013-03-19 08:12:00,30.0,17.0,-100.00,WSW,240,6.0,8.0,58,-99.99,,,-99.99,,2013-03-19 13:12:00,
2013-03-19 08:32:00,33.0,18.0,-100.00,NNW,340,0.0,2.0,54,-99.99,,,-99.99,,2013-03-19 13:32:00,
2013-03-19 08:42:00,33.0,18.0,-100.00,NNW,340,0.0,2.0,54,-99.99,,,-99.99,,2013-03-19 13:42:00,
2013-03-19 09:12:00,33.0,18.0,-100.00,NW,310,1.0,2.0,54,-99.99,,,-99.99,,2013-03-19 14:12:00,
2013-03-19 09:32:00,32.0,19.0,-100.00,SW,220,5.0,6.0,58,-99.99,,,-99.99,,2013-03-19 14:32:00,
2013-03-19 09:34:00,33.0,21.0,-100.00,SW,220,5.0,7.0,61,-99.99,,,-99.99,,2013-03-19 14:34:00,
2013-03-19 09:42:00,32.0,19.0,-100.00,SW,220,5.0,6.0,58,-99.99,,,-99.99,,2013-03-19 14:42:00,
2013-03-19 10:43:00,34.0,22.0,-100.00,SSW,210,4.0,8.0,61,-99.99,,,-99.99,,2013-03-19 15:43:00,
2013-03-19 11:34:00,35.0,22.0,-100.00,WSW,240,2.0,5.0,58,-99.99,,,-99.99,,2013-03-19 16:34:00,
2013-03-19 11:44:00,34.0,27.0,-100.00,WSW,245,3.0,4.0,74,-99.99,,,-99.99,,2013-03-19 16:44:00,
2013-03-19 12:03:00,34.0,23.0,-100.00,SSE,160,2.0,5.0,65,-99.99,,,-99.99,,2013-03-19 17:03:00,
2013-03-19 13:03:00,33.0,27.0,-100.00,SE,140,0.0,2.0,78,-99.99,,,-99.99,,2013-03-19 18:03:00,
2013-03-19 13:13:00,34.0,28.0,-100.00,South,170,1.0,1.0,80,-99.99,,,-99.99,,2013-03-19 18:13:00,
2013-03-19 14:02:00,33.0,29.0,-100.00,South,180,1.0,4.0,87,-99.99,,,-99.99,,2013-03-19 19:02:00,
2013-03-19 14:12:00,33.0,30.0,-100.00,South,180,0.0,2.0,89,-99.99,,,-99.99,,2013-03-19 19:12:00,
2013-03-19 14:33:00,33.0,31.0,-100.00,NNE,15,1.0,3.0,91,-99.99,,,-99.99,,2013-03-19 19:33:00,
2013-03-19 14:42:00,33.0,31.0,-100.00,NNE,15,1.0,3.0,91,-99.99,,,-99.99,,2013-03-19 19:42:00,
2013-03-19 15:32:00,34.0,32.0,-100.00,SW,215,1.0,1.0,95,-99.99,,,-99.99,,2013-03-19 20:32:00,
2013-03-19 16:02:00,34.0,33.0,-100.00,SSW,205,4.0,6.0,95,-99.99,,,-99.99,,2013-03-19 21:02:00,
2013-03-19 16:43:00,34.0,33.0,-100.00,SSW,210,4.0,9.0,98,-99.99,,,-99.99,,2013-03-19 21:43:00,
2013-03-19 17:43:00,35.0,35.0,-100.00,SSW,210,6.0,7.0,98,-99.99,,,-99.99,,2013-03-19 22:43:00,
2013-03-19 18:03:00,36.0,36.0,-100.00,SSW,200,7.0,11.0,99,-99.99,,,-99.99,,2013-03-19 23:03:00,
2013-03-19 18:32:00,38.0,38.0,-100.00,SSW,210,9.0,13.0,99,-99.99,,,-99.99,,2013-03-19 23:32:00,
2013-03-19 19:03:00,39.0,38.0,-100.00,WSW,250,4.0,7.0,99,-99.99,,,-99.99,,2013-03-20 00:03:00,
2013-03-19 19:33:00,39.0,39.0,-100.00,West,265,2.0,6.0,99,-99.99,,,-99.99,,2013-03-20 00:33:00,
2013-03-19 19:42:00,39.0,39.0,-100.00,West,265,2.0,6.0,99,-99.99,,,-99.99,,2013-03-20 00:42:00,
2013-03-19 20:03:00,39.0,39.0,-100.00,WSW,240,1.0,2.0,98,-99.99,,,-99.99,,2013-03-20 01:03:00,
2013-03-19 20:12:00,39.0,39.0,-100.00,WSW,245,0.0,1.0,98,-99.99,,,-99.99,,2013-03-20 01:12:00,
2013-03-19 20:32:00,38.0,37.0,-100.00,South,180,1.0,2.0,98,-99.99,,,-99.99,,2013-03-20 01:32:00,
2013-03-19 20:42:00,37.0,37.0,-100.00,SE,125,1.0,1.0,98,-99.99,,,-99.99,,2013-03-20 01:42:00,
2013-03-19 21:02:00,38.0,37.0,-100.00,NW,310,0.0,3.0,98,-99.99,,,-99.99,,2013-03-20 02:02:00,
2013-03-19 21:12:00,38.0,37.0,-100.00,NW,305,0.0,2.0,98,-99.99,,,-99.99,,2013-03-20 02:12:00,
2013-03-19 21:32:00,37.0,36.0,-100.00,SW,220,1.0,1.0,98,-99.99,,,-99.99,,2013-03-20 02:32:00,
2013-03-19 21:34:00,37.0,37.0,-100.00,SW,225,8.0,9.0,99,-99.99,,,-99.99,,2013-03-20 02:34:00,
2013-03-19 21:42:00,37.0,37.0,-100.00,SW,220,4.0,6.0,98,-99.99,,,-99.99,,2013-03-20 02:42:00,
2013-03-19 22:02:00,38.0,37.0,-100.00,SW,220,6.0,8.0,98,-99.99,,,-99.99,,2013-03-20 03:02:00,
2013-03-19 22:12:00,38.0,37.0,-100.00,SW,215,7.0,8.0,99,-99.99,,,-99.99,,2013-03-20 03:12:00,
2013-03-19 22:42:00,37.0,37.0,-100.00,SW,220,5.0,8.0,99,-99.99,,,-99.99,,2013-03-20 03:42:00,
2013-03-19 23:03:00,37.0,36.0,-100.00,SW,215,6.0,9.0,99,-99.99,,,-99.99,,2013-03-20 04:03:00,
2013-03-19 23:12:00,36.0,36.0,-100.00,SW,220,8.0,10.0,99,-99.99,,,-99.99,,2013-03-20 04:12:00,
2013-03-19 23:32:00,35.0,35.0,-100.00,SW,220,8.0,9.0,99,-99.99,,,-99.99,,2013-03-20 04:32:00,
2013-03-19 23:43:00,35.0,35.0,-100.00,SW,220,6.0,9.0,99,-99.99,,,-99.99,,2013-03-20 04:43:00,